Content
SEND FEEDBACK

Daily
Averages
Monthly
Summary
United States of America

PORT ANGELES EAST, WASHINGTON


Home > North America > United States > Washington
Elevation: 89 feet     Latitude: 48 01N     Longitude: 123 25W

WEATHER
 
SELECT A DAY
Number of Records: 205,210;   Date Range: 1/1/95 - 10/20/14
 
SHARE

PRINT THIS DATA

[ ← Previous Day ]
WEATHER ALMANAC - JANUARY 31, 2013
[ Next Day → ]
[ °C ]   °F
Weather ElementAverageHighLow
Temperature47.1 °F51.1 °F (12:41 pm)44.1 °F (5:53 am)
Dewpoint43.7 °F46 °F (10:53 am)41 °F (11:21 pm)
Humidity88.2 %93 % (5:53 am)80 % (1:01 pm)
Barometer30.31 in30.36 in (1:53 am)30.28 in (12:41 pm)
Wind Speed3.7 mph9.2 mph (1:53 am)
Weather ElementAverage
Visibility9.9 mi
Wind DirectionSSE (144.1 °)

Weather ElementTotal
Precipitation---
Heating Degree Days17.4 (Base 65)
Averaged from 41 records on January 31, 2013
WEATHER CONDITIONS BREAKOUT
WIND DIRECTION BREAKOUT
WEATHER BY HOUR - JANUARY 31, 2013
[ °C ]   °F
Local TimeTemperatureDewpointHumidityBarometerVisibilityWind DirectionWind SpeedGust SpeedPrecipitationEventsConditions
1:53 AM46.9 °F43.0 °F86 %30.36 in10.0 miWest (280°)9.2 mphMostly Cloudy
2:53 AM46.9 °F43.0 °F86 %30.36 in10.0 miWest (270°)8.1 mph0.00 inRainLight Rain
3:53 AM45.0 °F42.1 °F90 %30.36 in10.0 miESE (110°)3.5 mph0.00 inScattered Clouds
4:53 AM46.9 °F42.1 °F83 %30.35 in10.0 miVariable3.5 mphOvercast
5:53 AM44.1 °F42.1 °F93 %30.34 in10.0 miCalmMostly Cloudy
6:53 AM44.1 °F42.1 °F93 %30.33 in10.0 miCalmOvercast
7:53 AM44.1 °F42.1 °F93 %30.32 in10.0 miCalm0.00 inRainLight Rain
8:53 AM45.0 °F43.0 °F93 %30.32 in10.0 miSouth (180°)3.5 mph0.00 inRainLight Rain
9:53 AM46.9 °F45.0 °F93 %30.30 in10.0 miCalm0.00 inOvercast
10:53 AM50.0 °F46.0 °F86 %30.32 in10.0 miVariable4.6 mphOvercast
11:31 AM48.0 °F45.0 °F89 %30.30 in10.0 miNNW (340°)3.5 mphOvercast
11:46 AM48.0 °F45.0 °F89 %30.29 in10.0 miCalmMostly Cloudy
11:53 AM48.0 °F44.1 °F86 %30.30 in10.0 miCalmMostly Cloudy
12:41 PM51.1 °F46.0 °F83 %30.28 in10.0 miNW (320°)4.6 mphMostly Cloudy
12:51 PM50.0 °F44.6 °F82 %30.28 in10.0 miVariable4.6 mphMostly Cloudy
12:53 PM50.0 °F45.0 °F83 %30.28 in10.0 miVariable4.6 mphMostly Cloudy
1:01 PM50.0 °F44.1 °F80 %30.28 in10.0 miWNW (290°)5.8 mphOvercast
1:13 PM50.0 °F45.0 °F83 %30.28 in10.0 miNorth (360°)3.5 mphOvercast
1:53 PM48.9 °F44.1 °F83 %30.29 in10.0 miNorth (10°)5.8 mphOvercast
2:07 PM48.9 °F44.1 °F83 %30.28 in10.0 miNorth (10°)3.5 mphOvercast
2:48 PM48.2 °F44.6 °F87 %30.28 in10.0 miCalmOvercast
2:53 PM48.0 °F45.0 °F89 %30.29 in10.0 miCalmOvercast
3:23 PM50.0 °F45.0 °F83 %30.28 in10.0 miCalmOvercast
3:53 PM50.0 °F44.1 °F80 %30.29 in10.0 miCalmOvercast
4:10 PM50.0 °F44.1 °F80 %30.29 in10.0 miCalmOvercast
4:34 PM48.9 °F45.0 °F86 %30.29 in10.0 miCalmOvercast
4:53 PM48.0 °F45.0 °F89 %30.30 in10.0 miCalmOvercast
5:23 PM48.0 °F45.0 °F89 %30.30 in10.0 miNW (320°)4.6 mphOvercast
5:42 PM46.9 °F45.0 °F93 %30.30 in10.0 miWNW (300°)6.9 mphOvercast
5:53 PM46.9 °F45.0 °F93 %30.30 in10.0 miNW (310°)6.9 mphOvercast
6:53 PM46.0 °F44.1 °F93 %30.31 in10.0 miNW (320°)8.1 mphOvercast
7:16 PM46.0 °F44.1 °F93 %30.31 in9.0 miNW (320°)9.2 mphOvercast
7:53 PM45.0 °F43.0 °F93 %30.32 in7.0 miWNW (290°)6.9 mphOvercast
8:14 PM45.0 °F43.0 °F93 %30.31 in10.0 miWest (280°)8.1 mphOvercast
8:30 PM45.0 °F43.0 °F93 %30.31 in10.0 miWest (260°)5.8 mphOvercast
8:50 PM44.6 °F42.8 °F93 %30.31 in10.0 miWest (280°)8.1 mphOvercast
8:53 PM45.0 °F42.1 °F90 %30.32 in10.0 miWest (270°)6.9 mphOvercast
9:53 PM44.1 °F42.1 °F93 %30.32 in10.0 miWNW (290°)3.5 mphOvercast
10:53 PM45.0 °F42.1 °F90 %30.33 in10.0 miWest (260°)4.6 mphOvercast
11:21 PM44.1 °F41.0 °F89 %30.33 in10.0 miWSW (240°)3.5 mphOvercast
11:53 PM44.1 °F41.0 °F89 %30.35 in10.0 miCalmOvercast
Hourly data recorded from KCLM, located miles away from Port Angeles East, Washington







STORIES FROM OUR PARTNERS